www.pogodaiklimat.ru

Погода и климат >> Архив погоды >> Россия >> Камчатский край >> Начики


АРХИВ ПОГОДЫ в Начиках

Время (UTC), дата Ветер
(напр.,м/с)
 
Видим.   Явления Облачность Т
(С)
Тd
(С)
f
(%)
Тe
(С)
Тes
(С)
Комфортность P
(гПа)
Po
(гПа)
Тmin
(С)
Tmax
(С)
R
(мм)
R24
(мм)
S
(см)
18 18.05 штиль 0 50 км 10/4 1000 м
[Sc Ac trans Ci fib]
-0.9 -1.9 93 -2 -2 1020.9 981.3
21 18.05 ЮВ 1 10 км слаб. ливневой дождь 10/10 600 м
[Cb cap]
+1.3 -0.9 85 -1 -1 1018.5 979.3 -1.9 0.1 17
00 19.05 штиль 0 10 км слаб. ливневой дождь 10/10 600 м
[Cb cap]
+2.6 +1.4 92 +1 +1 1015.5 976.6
03 19.05 СЗ 1 50 км {ливн. осадки} 8/6 1000 м
[Sc diur, vesp Ci fib]
+9.4 +4.0 69 +9 +14 1012.5 974.7
06 19.05 ЮЗ 3 50 км {ливн. осадки} 9/9 1000 м
[Sc diur, vesp]
+12.8 +5.9 63 +12 +12 1007.9 970.7
09 19.05 С 2
{12}
4000 м слаб. ливневой дождь 10/10 600 м
[Cb cap]
+5.6 +3.4 86 +3 +3 1008.9 970.7 +14.5 4
12 19.05 ЮЗ 2 4000 м ливневой дождь 10/10 600 м
[Cb cap]
+4.5 +2.7 88 +2 +2 1008.6 970.2
15 19.05 СЗ 1 50 км {ливн. осадки} 10/10 600 м
[Sc diur, vesp]
+2.6 +1.8 94 +1 +1 1008.4 969.8
18 19.05 В 1 10 км слаб. ливневой дождь 9/9 600 м
[Cb cap]
+2.5 +2.0 96 +1 +1 1007.4 968.8
21 19.05 З 2 10 км слаб. ливневой дождь 10/10 600 м
[Cb cap]
+7.1 +3.8 80 +5 +5 1006.4 968.5 +1.4 2 11
00 20.05 Ю 3 50 км {ливн. осадки} 9/9 600 м
[Sc diur, vesp]
+6.5 +2.1 73 +4 +5 1006.7 968.7
03 20.05 З 3 50 км 9/9 600 м
[Sc]
+6.0 +0.9 70 +3 +4 1010.2 972.0
06 20.05 З 2 50 км 6/6 600 м
[Sc]
+9.6 +1.5 57 +8 +11 1009.7 972.0
09 20.05 З 5 50 км 8/4 1000 м
[Sc Ci]
+8.3 -0.5 54 +5 +5 1009.9 972.0 +10.5 0.0
12 20.05 СЗ 1 50 км 6/4 1000 м
[Sc Ci sp]
+5.1 -0.7 66 +4 +4 1010.4 972.0
15 20.05 Ю 1 50 км 3/0
[Ci sp]
+0.2 -1.4 89 -2 -2 1012.4 973.3
18 20.05 ЮВ 1 50 км 6/0
[Ci fib]
-1.1 -1.8 95 -3 -3 1014.1 974.7
21 20.05 С 1 50 км 10/0
[Ac trans Ci sp]
+6.3 -0.4 62 +6 +6 1014.4 976.0 -1.7 3
00 21.05 ЮВ 2 50 км 10/0
[Ci sp]
+11.4 -0.9 42 +11 +22 опасность
простуды
1013.9 976.2
03 21.05 ЮВ 3 50 км 6/0
[Ci sp]
+13.4 -1.4 36 +13 +17 1016.2 978.7
06 21.05 ЮВ 3 50 км 9/0
[Ac trans Ci sp]
+11.6 +0.4 46 +10 +11 1017.8 980.0
09 21.05 В 3 50 км 10/3 1000 м
[Sc Ac trans Ci sp]
+8.0 0.0 57 +6 +6 1021.1 982.7 +13.8
12 21.05 ЮВ 4 10 км слаб. ливневой дождь 10/10 600 м
[Cb cap]
+4.8 -0.0 71 +1 +1 1023.7 984.8
15 21.05 ЮВ 2 50 км в посл. час ливневой дождь 10/10 600 м
[Sc diur, vesp]
+3.5 -0.1 77 +1 +1 1024.8 985.7
18 21.05 ЮВ 4 50 км {ливн. осадки} 10/10 600 м
[Sc]
+2.6 +0.7 87 -2 -2 1025.2 985.9
21 21.05 В 4 4000 м туман на расстоянии 10/10 300 м
[St]
+3.7 +0.6 80 -1 -1 1024.9 985.8 +2.6 0.0 <0.5
00 22.05 В 4 4000 м туман на расстоянии 10/10 300 м
[St]
+5.6 +0.9 72 +2 +2 1025.4 986.5
03 22.05 В 5
{11}
50 км 8/4 1000 м
[Sc Ac trans Ci]
+8.3 +0.9 60 +5 +8 1024.2 985.8
06 22.05 ЮВ 4 50 км 10 баллов +6.8 +0.7 65 +4 +4 1023.9 985.3
09 22.05 ЮВ 6 50 км 9/8 1000 м
[Sc Ci fib]
+4.6 +0.7 76 -1 -1 1025.7 986.7 +8.9
12 22.05 ЮВ 4
{11}
50 км 9/8 600 м
[Sc Ci sp]
+3.3 +1.1 85 -1 -1 1025.4 986.2
15 22.05 В 4 50 км 10/10 600 м
[Sc]
+3.1 +0.8 85 -2 -2 1024.5 985.3
18 22.05 В 4 4000 м туман на расстоянии 10/10 300 м
[St]
+2.4 +1.0 90 -3 -3 1022.5 983.3
21 22.05 В 6-10
{10}
4000 м туман на расстоянии 10/10 300 м
[St]
+2.7 +1.0 89 -3 -3 1021.0 981.9 +2.2 <0.5
00 23.05 ЮВ 3
{11}
20 км 10/10 600 м
[Sc]
+3.7 +0.3 78 0 0 1019.3 980.4
03 23.05 В 3
{10}
4000 м ливневой дождь 10/10 600 м
[Cb cap]
+3.7 +1.3 84 -0 -0 1017.3 978.5
06 23.05 В 5-10
{12}
50 км слаб. ливневой дождь 10/10 600 м
[Cb cap]
+3.3 +0.5 82 -2 -2 1015.2 976.4
09 23.05 В 2
{10}
20 км в посл. час ливневой дождь 9/8 600 м
[Sc diur, vesp Ci ing]
+2.9 +1.3 89 -0 -0 1016.2 977.3 +3.9 6
12 23.05 ЮВ 5 50 км {ливн. осадки} 9/9 600 м
[Sc diur, vesp]
+2.0 +0.8 92 -4 -4 1014.7 975.7
15 23.05 ЮВ 1 50 км 9/6 600 м
[Sc Ac trans Ci sp]
+2.0 +0.8 92 0 0 1015.0 976.0
18 23.05 ЮВ 5 50 км 9/9 600 м
[Sc]
+2.3 +1.1 92 -3 -3 1013.6 974.7
21 23.05 В 3 50 км 9/9 600 м
[Sc]
+4.1 +1.2 81 0 +1 1011.9 973.4 +1.7 0
00 24.05 В 4 50 км 10/10 600 м
[Sc]
+7.7 +2.3 69 +5 +5 1010.7 972.7
03 24.05 В 5 50 км 10/10 1000 м
[Sc]
+8.7 +3.1 68 +5 +5 1009.8 972.0
06 24.05 ЮВ 5
{10}
50 км 10/10 600 м
[Sc]
+6.3 +2.2 75 +2 +2 1008.3 970.2
09 24.05 ЮВ 3 10 км слаб. ливневой дождь 10/10 600 м
[Cb cap]
+4.5 +2.5 87 +1 +1 1009.1 970.7 +9.5 0.5
12 24.05 ЮВ 4 4000 м туман на расстоянии {ливн. осадки} 10/10 300 м
[St]
+3.8 +2.4 91 -1 -1 1007.4 969.0
15 24.05 Ю 2 4000 м туман на расстоянии 10/10 300 м
[St]
+3.7 +2.0 89 +1 +1 1005.6 967.2
18 24.05 ЮВ 3 4000 м слаб. ливневой дождь 10/10 300 м
[Cb cap]
+3.2 +2.0 92 -1 -1 1003.7 965.3
21 24.05 ЮВ 3 4000 м ливневой дождь 10/10 300 м
[Cb cap]
+3.5 +2.3 92 -1 -1 1002.5 964.2 +3.0 4 0
00 25.05 В 5 4000 м туман на расстоянии {ливн. осадки} 10/10 300 м
[St]
+5.2 +2.4 82 +1 +1 1000.5 962.5
03 25.05 В 2 50 км 10/10 600 м
[Sc]
+8.2 +2.0 65 +7 +7 998.8 961.3
06 25.05 ЮВ 1 50 км 10/10 600 м
[Sc]
+9.4 +2.7 63 +9 +9 998.6 961.3
09 25.05 З 2 50 км 10/10 600 м
[Sc]
+7.6 +4.4 80 +6 +6 998.9 961.3 +9.7 0.3
12 25.05 ЮЗ 1 50 км 10/10 600 м
[Sc]
+5.7 +3.5 86 +5 +5 1000.2 962.3
15 25.05 ЮВ 1 50 км 10 баллов +3.9 +2.3 89 +2 +2 1003.5 965.3

 

Местоположение метеостанции Начики (Камчатский край, Россия): широта 53.12 долгота 157.70 высота над уровнем моря 317 м.

В архиве по умолчанию представлена погода в Начиках за последнюю неделю. Архивные данные за месяц целиком и за предыдущие месяцы, начиная с января 2011 года, Вы можете получить, выбрав интересующий диапазон дат из раскрывающегося списка и нажав кнопку "Ввод!".


*Определитесь, кто Вы:
робот инопланетянин человек

Внимание! Время в таблицах - всемирное. Для получения местного времени необходимо прибавить поправку, которая равна 12 ч.

Смотрите также архив погоды в соседних городах и на ближайших метеорологических станциях:

Погода в Сосновке (Камчатский край, Россия) (40 км)
Погода в Петропавловск-Камч. 2 (Камчатский край, Россия) (54 км)
Погода в Петропавловск-Камчатском (Камчатский край, Россия) (66 км)
Погода в Петропавловском Маяке (Камчатский край, Россия) (72 км)
Погода в Большерецке (Камчатский край, Россия) (99 км)
Погода в Пущино (Камчатский край, Россия) (120 км)
Погода в Водопадной (Камчатский край, Россия) (146 км)
Погода в Соболево (Камчатский край, Россия) (177 км)
Погода в Мильково (Камчатский край, Россия) (181 км)
Погода в Семячике (Камчатский край, Россия) (183 км)

Пояснения к столбцам:

Ветер - указаны скорость ветра в м/с - средняя за 10 мин, порывы в срок и между сроками (в фигурных скобках) и направление, откуда дует ветер: С - северный, СВ - северо-восточный, В - восточный, ЮВ - юго-восточный, Ю - южный, ЮЗ - юго-западный, З - западный, СЗ - северо-западный.
Видимость - горизонтальная дальность видимости в метрах или километрах. При видимости от 1 до 10 км при отсутствии осадков обычно наблюдается дымка, при ухудшении видимости до 1 км и менее - туман. В сухую погоду видимость может ухудшаться дымом, пылью или мглою.
Явления - указаны атмосферные явления, наблюдавшиеся в срок или в последний час перед сроком; фигурными скобками обозначены явления, наблюдавшиеся между сроками (за 1-3 часа до срока); квадратными скобками обозначены град или гололедные отложения с указанием их диаметра в мм.
Облачность - указаны через наклонную черту общая и нижняя облачность в баллах и высота нижней границы облаков в метрах; квадратными скобками обозначены формы облаков: Ci - перистые, Cs - перисто-слоистые, Cc - перисто-кучевые, Ac - высококучевые, As - высокослоистые, Sc - слоисто-кучевые, Ns - слоисто-дождевые, Cu - кучевые, Cb - кучево-дождевые. Подробнее классификацию облаков см. в Атласе облаков (PDF).
T - Температура воздуха - температура, измеренная на высоте 2 м над землей.
Td - Температура точки росы - температура, при понижении до которой содержащийся в воздухе водяной пар достигнет насыщения.
f - Относительная влажность воздуха - влажноcть воздуха, измеренная на высоте 2 м над землей.
Te - Эффективная температура - температура, которую ощущает одетый по сезону человек в тени. Характеристика душности погоды. При расчете учитывается влияние влажности воздуха и скорости ветра на теплоощущения человека.
Tes - Эффективная температура на солнце - температура, которую ощущает человек, с поправкой на солнечный нагрев. Характеристика знойности погоды. Зависит от высоты солнца над горизонтом, облачности и скорости ветра. Ночью, в пасмурную погоду, а также при ветре 12 м/с и более поправка равна нулю.
P - Атмосферное давление - приведенное к уровню моря атмосферное давление.
Po - Атмосферное давление - измеренное на уровне метеостанции атмосферное давление.
Tmin - Минимальная температура - минимум температуры воздуха на высоте 2 м над землей.
Tmax - Максимальная температура - максимум температуры воздуха на высоте 2 м над землей.
R - Количество осадков - Количество выпавших осадков за период времени, мм. При наведении курсора мыши на число - период времени, за который выпало указанное количество осадков.
R24 - Количество осадков - Количество выпавших осадков за 24 часа, мм.
S - Снежный покров - Высота снежного покрова, см. При наведении курсора мыши на число - состояние снежного покрова и степень покрытия местности в баллах.